Météo par heure à Abaclia

Ce jour, 15 Avril, Jeudi

Heure Température Précipitation Vent Pression Humidité
00:00 +8°C° 0.5 mm 3 m/s 752 mmHg 93%
01:00 +8°C° 0.5 mm 3 m/s 752 mmHg 93%
02:00 +7°C° 0.5 mm 4 m/s 752 mmHg 93%
03:00 +6°C° 0.6 mm 4 m/s 752 mmHg 93%
04:00 +6°C° 0.6 mm 5 m/s 752 mmHg 93%
05:00 +5°C° 0.6 mm 6 m/s 752 mmHg 93%
06:00 +4°C° 0.5 mm 6 m/s 753 mmHg 92%
07:00 +4°C° 0.5 mm 7 m/s 753 mmHg 91%
08:00 +3°C° 0.5 mm 7 m/s 754 mmHg 91%
09:00 +3°C° 0.2 mm 7 m/s 754 mmHg 90%
10:00 +3°C° 0.2 mm 7 m/s 754 mmHg 89%
11:00 +3°C° 0.2 mm 7 m/s 755 mmHg 88%
12:00 +3°C° 0.1 mm 7 m/s 755 mmHg 88%
13:00 +3°C° 0.1 mm 7 m/s 755 mmHg 87%
14:00 +3°C° 0.1 mm 7 m/s 755 mmHg 87%
15:00 +4°C° 0 mm 7 m/s 755 mmHg 86%
16:00 +4°C° 0 mm 6 m/s 755 mmHg 85%
17:00 +4°C° 0 mm 6 m/s 755 mmHg 84%
18:00 +4°C° 0 mm 6 m/s 756 mmHg 86%
19:00 +3°C° 0 mm 5 m/s 756 mmHg 88%
20:00 +3°C° 0 mm 5 m/s 756 mmHg 90%
21:00 +3°C° 0 mm 5 m/s 756 mmHg 90%
22:00 +3°C° 0 mm 5 m/s 756 mmHg 90%
23:00 +3°C° 0 mm 5 m/s 756 mmHg 90%

Demain, 16 Avril, Vendredi

Heure Température Précipitation Vent Pression Humidité
00:00 +3°C° 0 mm 5 m/s 756 mmHg 91%
01:00 +2°C° 0 mm 5 m/s 756 mmHg 91%
02:00 +2°C° 0 mm 5 m/s 756 mmHg 92%
03:00 +2°C° 0 mm 5 m/s 756 mmHg 91%
04:00 +2°C° 0 mm 5 m/s 756 mmHg 90%
05:00 +2°C° 0 mm 5 m/s 756 mmHg 90%
06:00 +2°C° 0 mm 5 m/s 757 mmHg 89%
07:00 +2°C° 0 mm 5 m/s 757 mmHg 89%
08:00 +2°C° 0 mm 5 m/s 757 mmHg 88%
09:00 +3°C° 0 mm 5 m/s 757 mmHg 83%
10:00 +5°C° 0 mm 5 m/s 758 mmHg 78%
11:00 +6°C° 0 mm 4 m/s 758 mmHg 73%
12:00 +6°C° 0 mm 4 m/s 758 mmHg 68%
13:00 +7°C° 0 mm 4 m/s 758 mmHg 62%
14:00 +9°C° 0 mm 3 m/s 758 mmHg 56%
15:00 +10°C° 0 mm 3 m/s 758 mmHg 53%
16:00 +10°C° 0 mm 3 m/s 758 mmHg 51%
17:00 +11°C° 0 mm 3 m/s 758 mmHg 48%
18:00 +9°C° 0 mm 2 m/s 758 mmHg 55%
19:00 +8°C° 0 mm 2 m/s 758 mmHg 61%
20:00 +8°C° 0 mm 1 m/s 759 mmHg 67%
21:00 +7°C° 0 mm 1 m/s 759 mmHg 70%
22:00 +7°C° 0 mm 1 m/s 759 mmHg 72%
23:00 +6°C° 0 mm 1 m/s 759 mmHg 75%

Après-demain, 17 Avril, Samedi

Heure Température Précipitation Vent Pression Humidité
00:00 +6°C° 0 mm 1 m/s 760 mmHg 76%
01:00 +6°C° 0 mm 1 m/s 760 mmHg 78%
02:00 +6°C° 0 mm 1 m/s 760 mmHg 79%
03:00 +5°C° 0 mm 1 m/s 760 mmHg 80%
04:00 +5°C° 0 mm 1 m/s 760 mmHg 81%
05:00 +5°C° 0 mm 1 m/s 760 mmHg 82%
06:00 +6°C° 0 mm 1 m/s 760 mmHg 77%
07:00 +7°C° 0 mm 2 m/s 760 mmHg 72%
08:00 +8°C° 0 mm 2 m/s 760 mmHg 67%
09:00 +10°C° 0 mm 3 m/s 760 mmHg 60%
10:00 +12°C° 0 mm 3 m/s 760 mmHg 53%
11:00 +13°C° 0 mm 4 m/s 760 mmHg 46%
12:00 +14°C° 0 mm 4 m/s 760 mmHg 44%
13:00 +14°C° 0 mm 4 m/s 759 mmHg 42%
14:00 +15°C° 0 mm 5 m/s 759 mmHg 40%
15:00 +14°C° 0 mm 5 m/s 759 mmHg 42%
16:00 +13°C° 0 mm 6 m/s 759 mmHg 45%
17:00 +13°C° 0 mm 6 m/s 759 mmHg 48%
18:00 +10°C° 0 mm 5 m/s 759 mmHg 55%
19:00 +10°C° 0 mm 4 m/s 759 mmHg 61%
20:00 +8°C° 0 mm 3 m/s 759 mmHg 68%
21:00 +8°C° 0 mm 3 m/s 759 mmHg 69%
22:00 +8°C° 0 mm 2 m/s 759 mmHg 71%
23:00 +8°C° 0 mm 2 m/s 759 mmHg 72%

18 Avril, Dimanche

Heure Température Précipitation Vent Pression Humidité
00:00 +8°C° 0 mm 2 m/s 759 mmHg 72%
01:00 +8°C° 0 mm 2 m/s 759 mmHg 72%
02:00 +8°C° 0 mm 2 m/s 759 mmHg 72%
03:00 +7°C° 0 mm 2 m/s 759 mmHg 74%
04:00 +7°C° 0 mm 2 m/s 759 mmHg 76%
05:00 +7°C° 0 mm 2 m/s 759 mmHg 78%
06:00 +8°C° 0 mm 2 m/s 759 mmHg 76%
07:00 +9°C° 0 mm 3 m/s 759 mmHg 73%
08:00 +8°C° 0 mm 4 m/s 759 mmHg 71%
09:00 +10°C° 0 mm 4 m/s 759 mmHg 68%
10:00 +11°C° 0 mm 4 m/s 759 mmHg 65%
11:00 +12°C° 0 mm 4 m/s 759 mmHg 63%
12:00 +12°C° 0 mm 4 m/s 759 mmHg 62%
13:00 +12°C° 0 mm 4 m/s 759 mmHg 61%
14:00 +12°C° 0 mm 4 m/s 759 mmHg 61%
15:00 +11°C° 0 mm 3 m/s 759 mmHg 64%
16:00 +11°C° 0 mm 3 m/s 759 mmHg 67%
17:00 +10°C° 0 mm 2 m/s 759 mmHg 70%
18:00 +10°C° 0 mm 2 m/s 759 mmHg 73%
19:00 +10°C° 0 mm 1 m/s 759 mmHg 77%
20:00 +10°C° 0 mm 1 m/s 760 mmHg 80%
21:00 +10°C° 0.1 mm 1 m/s 759 mmHg 81%
22:00 +10°C° 0.1 mm 1 m/s 759 mmHg 82%
23:00 +10°C° 0.1 mm 1 m/s 759 mmHg 83%

19 Avril, Lundi

Heure Température Précipitation Vent Pression Humidité
00:00 +10°C° 0 mm 1 m/s 759 mmHg 83%
01:00 +9°C° 0 mm 2 m/s 759 mmHg 83%
02:00 +9°C° 0 mm 2 m/s 759 mmHg 83%
03:00 +9°C° 0 mm 2 m/s 759 mmHg 83%
04:00 +9°C° 0 mm 3 m/s 758 mmHg 83%
05:00 +9°C° 0 mm 3 m/s 758 mmHg 82%
06:00 +9°C° 0 mm 3 m/s 758 mmHg 81%
07:00 +9°C° 0 mm 3 m/s 758 mmHg 81%
08:00 +8°C° 0 mm 4 m/s 758 mmHg 80%
09:00 +8°C° 0 mm 4 m/s 758 mmHg 76%
10:00 +10°C° 0 mm 4 m/s 758 mmHg 73%
11:00 +10°C° 0 mm 4 m/s 758 mmHg 70%
12:00 +9°C° 0 mm 5 m/s 757 mmHg 72%
13:00 +9°C° 0 mm 5 m/s 757 mmHg 73%
14:00 +9°C° 0 mm 6 m/s 756 mmHg 74%
15:00 +9°C° 0.4 mm 5 m/s 756 mmHg 77%
16:00 +9°C° 0.4 mm 5 m/s 755 mmHg 80%
17:00 +9°C° 0.4 mm 5 m/s 755 mmHg 83%
18:00 +8°C° 2.6 mm 6 m/s 754 mmHg 86%
19:00 +8°C° 2.6 mm 7 m/s 754 mmHg 89%
20:00 +7°C° 2.6 mm 8 m/s 753 mmHg 93%
21:00 +7°C° 1 mm 8 m/s 752 mmHg 92%
22:00 +7°C° 1 mm 8 m/s 751 mmHg 92%
23:00 +7°C° 1 mm 8 m/s 750 mmHg 92%

20 Avril, Mardi

Heure Température Précipitation Vent Pression Humidité
00:00 +7°C° 1.2 mm 8 m/s 749 mmHg 91%
01:00 +7°C° 1.2 mm 9 m/s 748 mmHg 91%
02:00 +8°C° 1.2 mm 9 m/s 746 mmHg 91%
03:00 +8°C° 1.2 mm 9 m/s 745 mmHg 91%
04:00 +8°C° 1.2 mm 9 m/s 744 mmHg 92%
05:00 +8°C° 1.2 mm 9 m/s 743 mmHg 92%
06:00 +8°C° 4.3 mm 9 m/s 742 mmHg 93%
07:00 +9°C° 4.3 mm 8 m/s 741 mmHg 94%
08:00 +7°C° 4.3 mm 8 m/s 741 mmHg 96%
09:00 +9°C° 1 mm 7 m/s 740 mmHg 95%
10:00 +10°C° 1 mm 7 m/s 740 mmHg 94%
11:00 +11°C° 1 mm 6 m/s 739 mmHg 94%
12:00 +13°C° 0.3 mm 6 m/s 739 mmHg 87%
13:00 +14°C° 0.3 mm 7 m/s 739 mmHg 81%
14:00 +15°C° 0.3 mm 7 m/s 739 mmHg 75%
15:00 +12°C° 0.5 mm 7 m/s 739 mmHg 80%
16:00 +11°C° 0.5 mm 7 m/s 739 mmHg 84%
17:00 +10°C° 0.5 mm 7 m/s 739 mmHg 88%
18:00 +8°C° 0 mm 7 m/s 740 mmHg 88%
19:00 +6°C° 0 mm 7 m/s 741 mmHg 88%
20:00 +4°C° 0 mm 7 m/s 742 mmHg 87%
21:00 +5°C° 0.2 mm 6 m/s 742 mmHg 89%
22:00 +6°C° 0.2 mm 5 m/s 743 mmHg 90%
23:00 +7°C° 0.2 mm 4 m/s 743 mmHg 91%
Voir plus

Nous avons besoin de votre consentement

Meteoprog et ses fournisseurs de services peuvent stocker et accéder à des données personnelles telles que des cookies, des identifiants d'appareils ou d'autres technologies similaires sur votre appareil et traiter ces données pour personnaliser le contenu et les publicités, ainsi que pour fournir des fonctionnalités de médias sociaux et analyser le trafic.

  • Stocker et/ou accéder à des informations sur votre appareil

    Des cookies, des identifiants d'appareils ou d'autres informations peuvent être stockés ou accessibles sur votre appareil aux fins indiquées ci-dessus.

  • Annonces et contenus personnalisés, mesure des annonces et des contenus, connaissance de l'audience et développement de produits

    Les annonces et le contenu peuvent être personnalisés en fonction d'un profil. D'autres données peuvent être ajoutées pour mieux personnaliser les annonces et le contenu. Les performances des publicités et du contenu peuvent être mesurées. Il est possible d'obtenir des informations sur le public qui a vu les publicités et le contenu. Ces données peuvent être utilisées pour développer ou améliorer l'expérience de l'utilisateur, les systèmes et les logiciels.

En cliquant sur "J'accepte", vous autorisez l'utilisation de cookies, des identifiants d'appareils, des balises web ou d'autres technologies similaires. Vos paramètres peuvent être modifiés dans le navigateur de votre appareil.

Dans certains cas, des intérêts légitimes peuvent être invoqués plutôt qu'un consentement. Vous pouvez en savoir plus à ce sujet dans notre Politique de confidentialité et de cookies.